ミュラー第5彗星

173P/Mueller 5 (1994)

English version
Home page
Updated on November 18, 2007

---------------------------------------------------------------------

・ プロフィール

符号 173P/1993 W1
発見日 1993年11月20日
発見光度 17.5-18等
発見者 Jean Mueller (Palomar Sky Survey)

・ 軌道要素

                    Epoch = 1994 Sept. 5.0 TT
     T = 1994 Sept.12.1603 TT         Peri. =  30.0222
     e = 0.260528                     Node  = 100.6625  2000.0
     q = 4.249738 AU                  Incl. =  16.4655
       a =  5.746990 AU    n = 0.0715391    P =  13.78 years

・ 光度変化

        m1 = -14 + 5 logΔ + 45 log r(t + 600)

---------------------------------------------------------------------

軌道要素は Dr. B. G. Marsden の計算によるもので、 IAUC 8613 に掲載されたものです。
光度グラフはComet for Windowsで作成したものです。

---------------------------------------------------------------------

Copyright(C) Seiichi Yoshida (comet@aerith.net). All rights reserved.